OBJECT Q, 68430

Orbit data source: Space-Track

You're viewing an Uncataloged Satellite

Recently launched and/or uncataloged satellites may have evolving metadata. Metadata may include but not limited to: Owner, Maufacturer, Bus, Motor, and Mission.

OBJECT Q, 68430 is a satellite in SSO that was launched on Mon, 30 Mar 2026 UTC via an FALCON 9 launch vehicle from the Air Force Western Test Range (AFWTR). Unknown objects in Earth's orbit typically refer to objects detected orbiting the Earth but have not yet been identified or cataloged. These objects could be anything from previously untracked satellites, spent rocket stages, debris from satellite collisions, or even natural meteoroids temporarily captured by Earth's gravity.

Loading next visibility...
Identifier
68430, 2026-067Q
Orbit
SSO
Country
Flag of TBDTBD
Related business
None
Manufacturer
Unknown
Mission
Operational spacecraft
Bus & Motor
Unknown
Mass
Unknown
Launch date (UTC)
2026-03-30 (1 month ago)
Launch vehicle
FALCON 9
Launch site
Air Force Western Test Range (AFWTR)
Object type
Unknown
Shape & HBR
Unknown shape, 1.1 m
Radar Cross Section
RCS unknown

Expand to show TLE details & history
Last TLE update: 11 hours ago

TLE from 11 hours ago
0 OBJECT Q
1 68430U 26067Q   26127.13423043  .00005437  00000-0  26675-3 0  9998
2 68430  97.4482  86.2059 0002651  97.9771 262.1764 15.18513953  5713
Epoch: 2026-05-07T03:13Z
TLE epoch observation values (Epoch: 2026-05-07T03:13:17.509Z)
Latitude
-0.00001°
Longitude
172.89822°
Altitude
513.667 km
Speed
7.607 km/s
True Right ascension
05h 44m 49s
True Declination
0° 00' 00"
Sunlit
Object was in daylight at epoch
Visualization orbit readout
Latitude
Unknown
Longitude
Unknown
Altitude
Unknown
Speed
Unknown
Apparent Right ascension
Unknown
Apparent Declination
Unknown
Sunlit
N/A
Visualization observer readout
Local Sidereal Time
22:04:25
Azimuth
Unknown
Elevation
Unknown
Doppler factor
Unknown
Orbital elements
Apogee altitude
509.126 km
Perigee altitude
505.475 km
Semi-major axis
6,885.438 km
Eccentricity
0.00027
Inclination
97.4482°
RAAN
86.2059°
Arg. of periapsis
97.9771°
True anomaly
262.14631°
Mean anomaly
262.1764°
Eccentric anomaly
262.16135°
Mean motion
3.79879 °/min
Orbital period
94.77 mins
BSTAR
0.00026675
Loading maneuver chart data...
Computing Atmospheric mass density...
Loading historical data...
Loading historical data...
Loading historical data...
Loading historical data...
Loading historical data...
Loading historical data...
Loading historical data...

Documentation

Showing up to 5 results
|